When you browse on this site, cookies collect data to enhance your experience and personalize the content and advertising you see.
Visit our Privacy Policy to learn more. By continuing to use the site, you agree to this use of cookies and data.
  • En España
  • Lista de países
  • Para 7 días
  • Temperatura del agua
  • El tiempo en el mapa
  • Informadores
  • user-avatar
    Iniciar sesión

    Tiempo cada hora Nedrigajlov

    Hoy, 5 Junio, Viernes

    Tiempo Temperatura Precipitaciones Viento Presión Humedad
    00:00 +11°C° 0 mm 4 mps 741 mmHg 92%
    01:00 +10°C° 0 mm 5 mps 741 mmHg 94%
    02:00 +10°C° 0 mm 4 mps 741 mmHg 94%
    03:00 +10°C° 0.2 mm 5 mps 741 mmHg 94%
    04:00 +10°C° 0.2 mm 6 mps 741 mmHg 95%
    05:00 +10°C° 0.2 mm 6 mps 740 mmHg 95%
    06:00 +10°C° 0.6 mm 6 mps 741 mmHg 95%
    07:00 +11°C° 0.6 mm 7 mps 741 mmHg 95%
    08:00 +11°C° 0 mm 7 mps 741 mmHg 95%
    09:00 +12°C° 0.2 mm 7 mps 741 mmHg 95%
    10:00 +13°C° 0.2 mm 6 mps 741 mmHg 94%
    11:00 +14°C° 0.2 mm 6 mps 741 mmHg 93%
    12:00 +15°C° 0.6 mm 6 mps 741 mmHg 90%
    13:00 +17°C° 0.6 mm 7 mps 741 mmHg 87%
    14:00 +18°C° 0.6 mm 7 mps 741 mmHg 84%
    15:00 +19°C° 0.2 mm 6 mps 741 mmHg 84%
    16:00 +20°C° 0.2 mm 5 mps 742 mmHg 84%
    17:00 +20°C° 0.2 mm 4 mps 742 mmHg 83%
    18:00 +19°C° 0.3 mm 3 mps 742 mmHg 86%
    19:00 +18°C° 0.3 mm 3 mps 742 mmHg 89%
    20:00 +17°C° 0.3 mm 3 mps 742 mmHg 92%
    21:00 +17°C° 0 mm 3 mps 742 mmHg 92%
    22:00 +15°C° 0 mm 4 mps 743 mmHg 93%
    23:00 +15°C° 0 mm 4 mps 743 mmHg 93%

    Mañana, 6 Junio, Sábado

    Tiempo Temperatura Precipitaciones Viento Presión Humedad
    00:00 +15°C° 0.1 mm 4 mps 743 mmHg 94%
    01:00 +14°C° 0.1 mm 4 mps 743 mmHg 95%
    02:00 +14°C° 0.1 mm 4 mps 743 mmHg 95%
    03:00 +14°C° 0 mm 4 mps 743 mmHg 95%
    04:00 +14°C° 0 mm 4 mps 743 mmHg 95%
    05:00 +14°C° 0 mm 4 mps 744 mmHg 95%
    06:00 +15°C° 0 mm 4 mps 744 mmHg 93%
    07:00 +16°C° 0 mm 5 mps 744 mmHg 91%
    08:00 +17°C° 0 mm 5 mps 745 mmHg 89%
    09:00 +20°C° 0 mm 5 mps 745 mmHg 87%
    10:00 +21°C° 0 mm 5 mps 745 mmHg 84%
    11:00 +23°C° 0 mm 5 mps 745 mmHg 81%
    12:00 +23°C° 0.4 mm 6 mps 745 mmHg 79%
    13:00 +24°C° 0.4 mm 6 mps 745 mmHg 76%
    14:00 +26°C° 0.4 mm 6 mps 745 mmHg 74%
    15:00 +24°C° 0.3 mm 6 mps 745 mmHg 76%
    16:00 +25°C° 0.3 mm 5 mps 745 mmHg 79%
    17:00 +25°C° 0.3 mm 4 mps 745 mmHg 81%
    18:00 +22°C° 0.3 mm 4 mps 745 mmHg 84%
    19:00 +21°C° 0.3 mm 4 mps 746 mmHg 86%
    20:00 +20°C° 0.3 mm 3 mps 746 mmHg 89%
    21:00 +19°C° 0.1 mm 3 mps 746 mmHg 89%
    22:00 +19°C° 0.1 mm 3 mps 746 mmHg 89%
    23:00 +18°C° 0.1 mm 3 mps 746 mmHg 89%

    Pasado mañana, 7 Junio, Domingo

    Tiempo Temperatura Precipitaciones Viento Presión Humedad
    00:00 +18°C° 0 mm 3 mps 747 mmHg 89%
    01:00 +17°C° 0 mm 2 mps 747 mmHg 90%
    02:00 +17°C° 0 mm 2 mps 747 mmHg 91%
    03:00 +17°C° 0 mm 2 mps 747 mmHg 90%
    04:00 +17°C° 0 mm 2 mps 747 mmHg 90%
    05:00 +17°C° 0 mm 2 mps 747 mmHg 90%
    06:00 +18°C° 0 mm 2 mps 747 mmHg 85%
    07:00 +20°C° 0 mm 2 mps 748 mmHg 81%
    08:00 +23°C° 0 mm 2 mps 748 mmHg 76%
    09:00 +24°C° 0 mm 2 mps 748 mmHg 72%
    10:00 +25°C° 0 mm 3 mps 748 mmHg 69%
    11:00 +26°C° 0 mm 3 mps 748 mmHg 65%
    12:00 +27°C° 0 mm 3 mps 748 mmHg 65%
    13:00 +27°C° 0 mm 3 mps 748 mmHg 65%
    14:00 +27°C° 0 mm 3 mps 748 mmHg 65%
    15:00 +27°C° 0 mm 3 mps 748 mmHg 67%
    16:00 +27°C° 0 mm 2 mps 748 mmHg 69%
    17:00 +27°C° 0 mm 2 mps 748 mmHg 72%
    18:00 +25°C° 0 mm 2 mps 747 mmHg 75%
    19:00 +23°C° 0 mm 2 mps 747 mmHg 79%
    20:00 +20°C° 0 mm 2 mps 747 mmHg 82%
    21:00 +20°C° 0 mm 2 mps 747 mmHg 82%
    22:00 +19°C° 0 mm 2 mps 747 mmHg 82%
    23:00 +18°C° 0 mm 2 mps 747 mmHg 81%

    8 Junio, Lunes

    Tiempo Temperatura Precipitaciones Viento Presión Humedad
    00:00 +18°C° 0 mm 2 mps 747 mmHg 81%
    01:00 +17°C° 0 mm 2 mps 747 mmHg 81%
    02:00 +17°C° 0 mm 2 mps 747 mmHg 81%
    03:00 +17°C° 0 mm 2 mps 747 mmHg 83%
    04:00 +17°C° 0 mm 2 mps 747 mmHg 85%
    05:00 +17°C° 0 mm 2 mps 747 mmHg 87%
    06:00 +19°C° 0 mm 2 mps 747 mmHg 84%
    07:00 +21°C° 0 mm 2 mps 748 mmHg 81%
    08:00 +24°C° 0 mm 3 mps 748 mmHg 78%
    09:00 +25°C° 0 mm 3 mps 748 mmHg 74%
    10:00 +26°C° 0 mm 3 mps 748 mmHg 70%
    11:00 +27°C° 0 mm 4 mps 748 mmHg 66%
    12:00 +27°C° 0 mm 4 mps 747 mmHg 65%
    13:00 +28°C° 0 mm 3 mps 747 mmHg 65%
    14:00 +28°C° 0 mm 3 mps 747 mmHg 64%
    15:00 +28°C° 0 mm 3 mps 747 mmHg 67%
    16:00 +27°C° 0 mm 3 mps 746 mmHg 70%
    17:00 +27°C° 0 mm 2 mps 746 mmHg 73%
    18:00 +26°C° 0 mm 2 mps 746 mmHg 77%
    19:00 +24°C° 0 mm 2 mps 746 mmHg 81%
    20:00 +21°C° 0 mm 2 mps 746 mmHg 86%
    21:00 +21°C° 0 mm 2 mps 746 mmHg 87%
    22:00 +20°C° 0 mm 2 mps 746 mmHg 88%
    23:00 +19°C° 0 mm 2 mps 746 mmHg 90%

    9 Junio, Martes

    Tiempo Temperatura Precipitaciones Viento Presión Humedad
    00:00 +19°C° 0 mm 2 mps 746 mmHg 90%
    01:00 +18°C° 0 mm 2 mps 746 mmHg 91%
    02:00 +18°C° 0 mm 2 mps 746 mmHg 91%
    03:00 +18°C° 0 mm 2 mps 746 mmHg 91%
    04:00 +18°C° 0 mm 2 mps 746 mmHg 90%
    05:00 +19°C° 0 mm 2 mps 746 mmHg 90%
    06:00 +20°C° 0 mm 3 mps 746 mmHg 86%
    07:00 +22°C° 0 mm 3 mps 746 mmHg 83%
    08:00 +24°C° 0 mm 3 mps 747 mmHg 80%
    09:00 +26°C° 0 mm 3 mps 747 mmHg 75%
    10:00 +27°C° 0 mm 3 mps 747 mmHg 70%
    11:00 +28°C° 0 mm 3 mps 747 mmHg 66%
    12:00 +28°C° 0 mm 3 mps 747 mmHg 65%
    13:00 +29°C° 0 mm 3 mps 747 mmHg 63%
    14:00 +29°C° 0 mm 3 mps 746 mmHg 62%
    15:00 +29°C° 0 mm 3 mps 746 mmHg 66%
    16:00 +29°C° 0 mm 2 mps 746 mmHg 69%
    17:00 +28°C° 0 mm 2 mps 746 mmHg 73%
    18:00 +27°C° 0 mm 2 mps 746 mmHg 76%
    19:00 +25°C° 0 mm 2 mps 746 mmHg 79%
    20:00 +23°C° 0 mm 2 mps 746 mmHg 83%
    21:00 +22°C° 0 mm 3 mps 746 mmHg 85%
    22:00 +21°C° 0 mm 3 mps 746 mmHg 87%
    23:00 +20°C° 0 mm 3 mps 746 mmHg 89%

    10 Junio, Miércoles

    Tiempo Temperatura Precipitaciones Viento Presión Humedad
    00:00 +20°C° 0 mm 3 mps 746 mmHg 90%
    01:00 +19°C° 0 mm 3 mps 746 mmHg 91%
    02:00 +19°C° 0 mm 3 mps 746 mmHg 92%
    03:00 +19°C° 0 mm 3 mps 746 mmHg 92%
    04:00 +19°C° 0 mm 3 mps 746 mmHg 92%
    05:00 +19°C° 0 mm 3 mps 746 mmHg 92%
    06:00 +21°C° 0 mm 3 mps 747 mmHg 88%
    07:00 +24°C° 0 mm 3 mps 747 mmHg 85%
    08:00 +25°C° 0 mm 3 mps 747 mmHg 81%
    09:00 +27°C° 0.5 mm 3 mps 747 mmHg 74%
    10:00 +28°C° 0.5 mm 3 mps 747 mmHg 67%
    11:00 +30°C° 0.5 mm 4 mps 747 mmHg 60%
    12:00 +30°C° 0 mm 4 mps 747 mmHg 60%
    13:00 +30°C° 0 mm 4 mps 747 mmHg 59%
    14:00 +30°C° 0 mm 4 mps 747 mmHg 59%
    15:00 +30°C° 0.1 mm 3 mps 746 mmHg 64%
    16:00 +29°C° 0.1 mm 3 mps 746 mmHg 70%
    17:00 +29°C° 0.1 mm 3 mps 746 mmHg 75%
    18:00 +27°C° 0 mm 3 mps 746 mmHg 78%
    19:00 +26°C° 0 mm 3 mps 746 mmHg 82%
    20:00 +24°C° 0 mm 3 mps 746 mmHg 85%
    21:00 +22°C° 0 mm 3 mps 746 mmHg 86%
    22:00 +22°C° 0 mm 3 mps 746 mmHg 86%
    23:00 +21°C° 0 mm 3 mps 746 mmHg 87%
    Mostrar más